This is the latest recevied weather packets stored in our database for station/object KI2K. If no packets are shown the sender has not sent any weather packets the latest 10 day(s).
| Time | Temp. | Humidity | Pressure | Rain* | Wind** | Luminosity | Snow |
|---|---|---|---|---|---|---|---|
| 1777828095 | 16.11° C | 52% | 1016.3 hPa | 0 mm | - | 597 W/m² | - |
| 1777827792 | 15.56° C | 51% | 1016.3 hPa | 0 mm | - | 495 W/m² | - |
| 1777827489 | 15.56° C | 51% | 1016.4 hPa | 0 mm | - | 452 W/m² | - |
| 1777827187 | 15.56° C | 50% | 1016.6 hPa | 0 mm | - | 584 W/m² | - |
| 1777826883 | 15.56° C | 50% | 1016.5 hPa | 0 mm | - | 454 W/m² | - |
| 1777826581 | 15° C | 51% | 1016.5 hPa | 0 mm | - | 609 W/m² | - |
| 1777826276 | 15.56° C | 50% | 1016.4 hPa | 0 mm | - | 851 W/m² | - |
| 1777825974 | 15.56° C | 50% | 1016.6 hPa | 0 mm | - | 841 W/m² | - |
| 1777825670 | 15.56° C | 51% | 1016.5 hPa | 0 mm | - | 437 W/m² | - |
| 1777825369 | 15.56° C | 53% | 1016.6 hPa | 0 mm | - | 650 W/m² | - |
| 1777825065 | 15° C | 52% | 1017 hPa | 0 mm | - | 653 W/m² | - |
| 1777824761 | 15° C | 52% | 1017 hPa | 0 mm | - | 373 W/m² | - |
| 1777824459 | 15° C | 54% | 1017.1 hPa | 0 mm | - | 306 W/m² | - |
| 1777824154 | 15° C | 54% | 1017.2 hPa | 0 mm | - | 518 W/m² | - |
| 1777823850 | 15° C | 52% | 1017.4 hPa | 0 mm | - | 546 W/m² | - |
| 1777823548 | 15° C | 53% | 1017.4 hPa | 0 mm | - | 548 W/m² | - |
| 1777823245 | 14.44° C | 52% | 1017.5 hPa | 0 mm | - | 669 W/m² | - |
| 1777822943 | 15° C | 53% | 1017.5 hPa | 0 mm | - | 314 W/m² | - |
| 1777822641 | 14.44° C | 51% | 1017.5 hPa | 0 mm | - | 792 W/m² | - |
| 1777822338 | 14.44° C | 52% | 1017.7 hPa | 0 mm | - | 820 W/m² | - |
| 1777822036 | 14.44° C | 52% | 1017.7 hPa | 0 mm | - | 791 W/m² | - |
| 1777821734 | 14.44° C | 52% | 1017.9 hPa | 0 mm | - | 788 W/m² | - |
| 1777821430 | 13.89° C | 53% | 1017.9 hPa | 0 mm | - | 741 W/m² | - |
| 1777821128 | 15° C | 50% | 1017.8 hPa | 0 mm | - | 735 W/m² | - |
| 1777820824 | 13.89° C | 53% | 1017.8 hPa | 0 mm | - | 733 W/m² | - |
* Rain latest hour (hover to see other rain measurements)
** Current wind speed in m/s (hover to see current wind gust speed)